Regional Weather Roundup
Issued by NWS

Home | Current Version | Previous Version | Text Only | Print | Product List | Glossary On
Versions: 1 2 3 4 5 6 7 8 9 10 11 12 13 14 15 16 17 18 19 20 21 22 23 24 25 26 27 28 29 30 31 32 33 34 35 36 37 38 39 40 41 42 43 44 45 46 47 48 49 50
000
ASUS43 KDTX 270710
RWRMI
MICHIGAN HOURLY REGIONAL WEATHER ROUNDUP
NATIONAL WEATHER SERVICE DETROIT/PONTIAC MI
300 AM EDT THU APR 27 2017

NOTE: "FAIR" INDICATES FEW OR NO CLOUDS BELOW 12,000 FEET WITH NO
SIGNIFICANT WEATHER AND/OR OBSTRUCTION TO VISIBILITY.

MIZ047>049-052>055-059>063-066>070-074>076-081>083-270800-
SOUTHEAST LOWER MICHIGAN

CITY           SKY/WX    TMP DP  RH WIND       PRES   REMARKS
ADRIAN         CLEAR     65  52  62 S10       29.51F
ALMA           CLOUDY    65  59  78 SE7       29.44F
ANN ARBOR      CLEAR     64  55  72 SE7       29.51F
BAD AXE        PTCLDY    61  55  79 S8        29.53R
CARO           MOCLDY    61  57  86 SE7       29.50F
DETROIT CITY   CLOUDY    59  52  77 SE7       29.54F
DETROIT        CLOUDY    65  51  60 SE7       29.54F
FLINT          PTCLDY    62  57  83 SE8       29.49F
GROSSE ILE     CLOUDY    64  53  67 S12       29.53F
HILLSDALE      CLOUDY    64  52  63 S12G17    29.49F
HOWELL         PTCLDY    62  56  82 SE7       29.49F

CITY           SKY/WX    TMP DP  RH WIND       PRES   REMARKS
JACKSON        PTCLDY    65  55  70 S9        29.48F
LAMBERTVILLE   CLEAR     68  48  48 S7        29.52F
LANSING        MOCLDY    67  55  65 S14       29.46F
LAPEER         FAIR      59  53  81 SE8       29.53F
MASON          MOCLDY    66  56  72 S10G16    29.48F
MONROE         PTCLDY    64  50  61 SE7       29.52F
MT. CLEMENS    CLOUDY    55  55  99 E6        29.54F
PONTIAC        PTCLDY    60  53  77 SE9       29.52F
PORT HOPE        N/A     61  54  77 S9G20     29.50R
PORT HURON     CLOUDY    57  50  77 SE5       29.57S
TRI CITIES     CLOUDY    66  59  78 SE12      29.47F
MIDLAND        MOCLDY    68  57  67 SE12      29.46F
TROY           PTCLDY    60  50  68 CALM      29.56F
SAGINAW HB     MOCLDY    63  55  77 SE9       29.48F
$$
MIZ043>046-050>051-056>058-064>065-071>073-077>080-270800-
SOUTHWEST LOWER MICHIGAN

CITY           SKY/WX    TMP DP  RH WIND       PRES   REMARKS
BATTLE CREEK   MOCLDY    64  58  80 S7        29.45F
BENTON HARBOR  CLOUDY    59  57  93 E5        29.41F FOG
BIG RAPIDS     CLOUDY    59  56  88 CALM      29.42F
COLDWATER      CLOUDY    65  56  70 SE10      29.46F
FREMONT        HVY RAIN  59  58  98 W7        29.42F
HOLLAND        CLOUDY    59  57  93 CALM      29.42F
GRAND RAPIDS   CLOUDY    62  61  96 SE7       29.41F
IONIA          FAIR      65  56  72 S8        29.43F
KALAMAZOO      CLOUDY    61  55  81 SW5       29.44F
LUDINGTON      RAIN      56  56 100 CALM      29.41F
MARSHALL       MOCLDY    67  55  65 S9G16     29.45F
MOUNT PLEASANT CLOUDY    64  56  77 S6        29.44F
MUSKEGON       LGT RAIN  58  57  97 CALM      29.42F FOG
SOUTH HAVEN    CLOUDY    58  57  97 E3        29.41F FOG
$$
MIZ016>042-270800-
NORTHERN LOWER MICHIGAN

CITY           SKY/WX    TMP DP  RH WIND       PRES   REMARKS
ALPENA         CLOUDY    52  50  93 N3        29.44F
BEAVER ISLAND  RAIN      50  49  96 SE3       29.44S
BELLAIRE       CLOUDY    57  55  93 CALM      29.43F
CADILLAC       LGT RAIN  59  56  91 E9        29.42F
CHARLEVOIX     DRIZZLE   60  57  89 SE3       29.45F
FRANKFORT      LGT RAIN  57  55  93 CALM      29.41F
GAYLORD        CLOUDY    63  55  75 SE6       29.45F
GRAYLING       CLOUDY    58  55  91 CALM      29.47R
HARBOR SPRINGS LGT RAIN  57  56  97 NE7       29.43F
HOUGHTON LAKE  LGT RAIN  61  56  83 SE7       29.46F
MANISTEE       LGT RAIN  58  57  97 CALM      29.40F
OSCODA         CLOUDY    62  53  72 SW6       29.46R
PELLSTON       LGT RAIN  54  51  90 CALM      29.44F
ROGERS CITY    CLOUDY    48  45  89 S3        29.47F
TRAVERSE CITY  LGT RAIN  61  57  87 CALM      29.42S
$$
MIZ007>008-015-270800-
EASTERN UPPER MICHIGAN

CITY           SKY/WX    TMP DP  RH WIND       PRES   REMARKS
KINROSS        CLOUDY    50  48  93 E9        29.46F
MACKINAC ISLAN LGT RAIN  46  46 100 E15       29.45F
NEWBERRY       CLOUDY    51  50  97 N3        29.43F FOG
S. S. MARIE    CLOUDY    54  50  86 E7        29.45F
MUNISING         N/A     36  35  96 N8        29.47F WCI  30
$$
MIZ004>006-011>014-085-270800-
CENTRAL UPPER MICHIGAN

CITY           SKY/WX    TMP DP  RH WIND       PRES   REMARKS
MANISTIQUE     FOG       44  43  97 N5        29.44S VSB 3/4
ESCANABA       LGT RAIN  42  42 100 N8        29.44F FOG
MENOMINEE      LGT RAIN  44  42  93 N8        29.42F
SAWYER-GWINN   FOG       35  34  99 NE7       29.45F VSB 3/4 WCI  29
$$
MIZ001>003-009>011-084-270800-
WESTERN UPPER MICHIGAN

CITY           SKY/WX    TMP DP  RH WIND       PRES   REMARKS
IRON MOUNTAIN  CLOUDY    37  33  85 NW10      29.43F WCI  30
HOUGHTON       LGT SNOW  30  26  85 N10       29.49F FOG     WCI  21
IRONWOOD       LGT SNOW  27  27 100 N9        29.54F VSB 1   WCI  17
$$

ABBREVIATIONS USED IN REMARKS
   TC - TEMPERATURE IN CELSIUS
  WCI - WIND CHILL INDEX
   HX - HEAT INDEX
  VSB - VISIBILITY





USA.gov is the U.S. government's official web portal to all federal, state and local government web resources and services.